Location: Sungai Jaoh
(2.9167°N, 113.9167°E)
Time: 06:45:00
(UTC+00:00)

GPS 2-17 Rocket1 - Pass Details

Date: 30 November 2020
Orbit: 571 x 659 km, 20.3° (Epoch: 25 January)

Event Time Altitude Azimuth Distance (km) Brightness Sun altitude
Exits shadow 21:04:04 30° 318° (NW) 1,060 3.7 -17.1°
Maximum altitude 21:04:54 33° 340° (NNW) 1,001 3.8 -17.0°
Drops below altitude 10° 21:08:54 10° 45° (NE) 1,894 5.8 -16.0°
Sets 21:11:22 0° 55° (NE) 2,779 6.9 -15.5°
